Showing default

COSMOS 209, 3158

Orbit data source: Space-Track

COSMOS 209, 3158 is a payload satellite owned by TSKBM (CIS) in LEO that was launched on Fri, 22 Mar 1968 UTC via a TSIKLON-2A launch vehicle from the Tyuratam Missile And Space Complex (TTMTR). Payloads include a variety of satellites, spacecraft, and rockets equipped with specific instruments for various scientific and technological missions. These include communications satellites like Starlink; space stations such as the ISS; scientific satellites like the Hubble; Earth observation satellites from companies like Planet Labs, Umbra, and HawkEye 360; GPS; miniature CubeSats for education and research; and military/defense satellites.

Loading next visibility...
COSMOS 209 details
Identifier
3158, 1968-023A
Orbit
LEO
Last TLE update20 hours ago
Origin
Flag of CISTSKBM (CIS)
ManufacturerTSKBM/KB1
MissionDefense Sigint
Bus & MotorUS-A REACTOR, Unknown motor
Mass3,800 kg wet, 1,140 kg dry
Launch date (UTC)
1968-03-22 (57 years ago)
Launch vehicle
TSIKLON-2A
Launch site
Tyuratam Missile And Space Complex (TTMTR)
Object type
Payload
Rocket body
Debris
Shape & HBRCyl, 5.8 m
Radar Cross Section6.586 m², Large (>1 m²)

Expand to show TLE details & history

TLE from 20 hours ago
0 COSMOS 209
1 03158U 68023A   24355.76885379 -.00000036  00000-0  37818-4 0  9999
2 03158  65.3300 177.2117 0024403 111.5217 248.8457 13.97876415895059
Epoch: 2024-12-20T18:27Z
Definitive object data (Epoch: 2024-12-20T18:27:08.967Z)
Latitude-0.0001°
Longitude170.59468°
Altitude909.575 km
Speed7.394 km/s
True Right ascension11h 48m 50s
True Declination0° 00' 00"
Sunlit
Object was in daylight at TLE epoch
Visualization TLE readout
Latitude-65.36746°
Longitude73.60235°
Altitude941.4 km
Speed7.372 km/s
Apparent Right ascension03h 02m 16s
Apparent Declination-56° 27' 17"
Sunlit
Object is in daylight
Visualization observer readout
Local Sidereal Time13:39:06
Azimuth212.512° SW
Elevation-68.596°
Doppler factor1
Orbital elements
Apogee altitude917.479 km
Perigee altitude881.959 km
Semi-major axis7,277.856 km
Eccentricity0.0024403
Inclination65.33°
RAAN177.2117°
Arg. of periapsis111.5217°
True anomaly248.58519°
Mean anomaly248.8457°
Eccentric anomaly248.71542°
Mean motion3.49573 °/min
BSTAR0.000037818
Orbital period102.98 mins
Loading maneuver chart data...
Loading historical data...
Loading historical data...
Loading historical data...
Loading historical data...
Loading historical data...
Loading historical data...
Loading historical data...

COSMOS 209 Visibility forecast

Observer location: undefined°, undefined

Span
Click to sort rows by Start time (UTC) header in descending order
Start Az.
Max El. time (UTC)
Max El. Az.
Max El.
End time (UTC)
End Az.
9 mins2024-12-21 15:13:56.605Z255.43° W2024-12-21 15:18:56.605Z320.025° NNW26.352°2024-12-21 15:22:56.605Z8.87° NNE
9 mins2024-12-21 22:28:56.605Z341.721° N2024-12-21 22:32:56.605Z46.596° ENE39.406°2024-12-21 22:37:56.605Z129.954° SE
7 mins2024-12-22 00:15:56.605Z288.339° WNW2024-12-22 00:18:56.605Z249.077° W21.211°2024-12-22 00:22:56.605Z203.862° SW
9 mins2024-12-22 13:30:56.605Z193.888° SSW2024-12-22 13:34:56.605Z120.825° SE42.314°2024-12-22 13:39:56.605Z38.253° NE
|